Apple Cup Yearling Classic - Memorial Day Loft Settling Inventory

Station: loft Inventory - T Race

Distance: 10 Miles    

Release: 28-May-2018 09:00

Weather Release:    Arrival:

Wind at Release:     Wind at Arrival:

Temp at Release: °    Temp at Arrival: °

Lofts: 152

Birds: 622

Clocked: 621

843 Birds In The Loft
Drops Pos Breeder Pigeon Name Color Sex Ent Arrival Speed To Win Eligible
301 Western Loft - CA 0304-AU18-SFR BB H 3 11:14:04.59 131.268 00:02:54 Yes
301 Valdes & Rudy Loft - FL 3824-AU18-SCHE George BB H 3 11:14:04.63 131.268 00:02:54 Yes
303 Van Den Bossche Brothers - ME 8889-IF18-CMP Tacoma SPLH H 2 11:14:04.92 131.263 00:02:54 Yes
304 Dream Team - VT 18458-AU18-DT BB H 6 11:14:05.46 131.254 00:02:54 Yes
305 Whiskey Hollow Loft - TX 0327-AU18-WACO Maker"s Mark BC H 1 11:14:05.98 131.246 00:02:55 Yes
306 Tony86 - OR 54302-AU18-ARPU BC H 2 11:14:06.34 131.240 00:02:55 Yes
307 K/N Loft - HI 0049-AU18-FIA BB H 3 11:14:06.98 131.229 00:02:56 Yes
308 Kim Wong - VT 17430-AU18-ARPU BC H 2 11:14:08.60 131.203 00:02:58 Yes
309 Tony86 - OR 54301-AU18-ARPU BCWF H 3 11:14:08.69 131.201 00:02:58 Yes
310 Alan Porter - WI 0425-AU18-RRR BB H 6 11:14:09.19 131.193 00:02:58 Yes
311 Dream Union - DC 0311-AU18-TFC BB H 3 11:14:09.28 131.192 00:02:58 Yes
312 Me Fui Vega Loft - FL 1789-AU18-GHC RB H 1 11:14:10.26 131.176 00:02:59 Yes
313 Dj Loft Of Utah - UT 19404-AU18-ARPU Neto Wonderdirk BB H 7 11:14:10.94 131.165 00:03:00 Yes
314 Irishsyndicatelofts - AZ 0168-IF18-IRIS BB H 3 11:14:11.45 131.156 00:03:00 Yes
315 A P C Loft - TX 18111-AU18-APC BC H 9 11:14:11.62 131.154 00:03:01 Yes
316 Van Den Bossche Brothers - ME 8230-IF18-CMP BBWF H 3 11:14:12.19 131.144 00:03:01 Yes
317 Ken & Roly - NM 2686-AU18-VITA BC H 9 11:14:13.71 131.120 00:03:03 Yes
318 Fassio Loft - UT 0920-AU18-SLI BB H 4 11:14:13.98 131.115 00:03:03 Yes
319 Woodland Loft - NY 0017-IF18-WOOD BC H 1 11:14:14.81 131.102 00:03:04 Yes
320 A B C Loft2 - NY 51602-AU18-ARPU PIED H 8 11:14:15.22 131.095 00:03:04 Yes
321 Csa - MS 6511-AU18-FOYS BB H 1 11:14:16.38 131.076 00:03:05 Yes
322 Dream Union - DC 1802-IF18-TAO BB H 4 11:14:16.79 131.070 00:03:06 Yes
323 American Lofts - OR 2561-AU18-CORP SPLH H 5 11:14:17.43 131.059 00:03:06 Yes
324 Shamrock Loft - CO 8984-AU18-PPH Corsair BB H 4 11:14:18.12 131.048 00:03:07 Yes
325 Hollywood Lou Loft - FL 0265-AU18-CCIF BB H 4 11:14:19.36 131.028 00:03:08 Yes
326 Taylor Loft - NM 0747-AU18-NMRP BB H 1 11:14:19.78 131.021 00:03:09 Yes
327 Dream Team - VT 18480-AU18-DT BB H 7 11:14:24.59 130.943 00:03:14 Yes
328 Igor & Sons/Evergreen Loft - OR 0646-AU18-PNW BB H 3 11:14:25.48 130.928 00:03:14 Yes
329 Siguaraya & El Rey De Los Cielos - FL 29102-AU18-ARPU Blue Lable BB H 6 11:14:27.14 130.901 00:03:16 Yes
330 Burge Family Loft - CA 0112-AU18-BURG DC H 2 11:14:27.73 130.892 00:03:17 Yes
331 American Lofts - OR 2558-AU18-CORP YELW H 6 11:14:28.34 130.882 00:03:17 Yes
332 American Lofts - OR 2554-AU18-CORP OPAL H 7 11:14:28.79 130.875 00:03:18 Yes
333 Thunder Birds/Rodriguez Breeding Loft - TX 18802-AU18-ARPU BB H 2 11:14:29.49 130.863 00:03:18 Yes
334 Floridian Loft - FL 2580-AU18-SCHE DEN 80 BC H 15 11:14:30.13 130.853 00:03:19 Yes
335 Medina Loft - TX 1839-AU18-JJ BB H 1 11:14:33.34 130.801 00:03:22 Yes
336 B T F - UT 5650-AU18-OGN SPLH H 3 11:14:34.91 130.775 00:03:24 Yes
337 Barry Venn - WY 18077-AU18-VENN DC H 4 11:14:35.79 130.761 00:03:25 Yes
338 Baldwin & Tilson - NC 8010-AU18-TENT RB H 1 11:14:36.71 130.746 00:03:26 Yes
339 A B C Loft2 - NY 51601-AU18-ARPU BB H 9 11:14:37.72 130.730 00:03:27 Yes
340 Burge Family Loft - CA 0114-AU18-BURG BB H 3 11:14:37.77 130.729 00:03:27 Yes
341 Yang Family Racing - CA 0014-AU18-YS 900 X 1482701 BB H 2 11:14:38.18 130.723 00:03:27 Yes
342 David Clausing - FL 0105-IF18-CLAU BB H 5 11:14:38.96 130.710 00:03:28 Yes
343 J H C - AL 6540-AU18-ARPU PIED H 3 11:14:39.19 130.706 00:03:28 Yes
344 Sonder Loft - CA 8958-AU18-JEDS BC H 5 11:14:39.70 130.698 00:03:29 Yes
345 American Lofts - OR 2543-AU18-CORP OPAL H 8 11:14:40.48 130.685 00:03:29 Yes
346 Blaco & Williamson - CA 3888-AU18-COM BB H 3 11:14:41.86 130.663 00:03:31 Yes
347 Horse Heaven Hills - OR 0814-AU18-HHH BC H 6 11:14:43.06 130.644 00:03:32 Yes
348 Ramon Guerrero & Refujio Martinez - WA 0066-AU18-PSF BCWF H 2 11:14:43.20 130.641 00:03:32 Yes
349 Christopher Loft - UT 8404-AU18-GS BB H 4 11:14:43.69 130.633 00:03:33 Yes
350 Warbird Loft - CO 8617-AU18-FH BBWF H 2 11:14:44.35 130.623 00:03:33 Yes
351 Floridian Loft - FL 2586-AU18-SCHE DEN 86 BB H 16 11:14:44.66 130.618 00:03:34 Yes
352 Csa - MS 6502-AU18-FOYS BB H 2 11:14:45.45 130.605 00:03:34 Yes
353 Alan Porter - WI 0435-AU18-RRR BBWF H 7 11:14:46.41 130.589 00:03:35 Yes
354 A B C Loft2 - NY 51711-AU18-ARPU BC H 10 11:14:46.92 130.581 00:03:36 Yes
355 Thunder Birds/Rodriguez Breeding Loft - TX 18801-AU18-ARPU BC H 3 11:14:47.85 130.566 00:03:37 Yes
356 Westfall Loft - MO 20909-AU18-JEDS BBWF H 3 11:14:47.93 130.565 00:03:37 Yes
357 L & L Breeding Station - WA 8253-AU18-LL Checkmark BC H 3 11:14:48.30 130.559 00:03:37 Yes
358 Marengo Creek Farms - AL 3014-AU18-MCF BB H 7 11:14:48.39 130.558 00:03:37 Yes
359 Jing X Zheng - WA 18343-AU18-ARPU BC H 2 11:14:49.45 130.540 00:03:38 Yes
360 Solache / Finn - TX 3208-AU18-VITA BB H 1 11:14:50.15 130.529 00:03:39 Yes
361 Siguaraya & El Rey De Los Cielos - FL 29106-AU18-ARPU Majestic BBWF H 7 11:14:50.64 130.521 00:03:40 Yes
362 K/N Loft - HI 0048-AU18-FIA BB H 4 11:14:50.78 130.519 00:03:40 Yes
363 Joe Sanford - CA 7410-AU18-JEDS BB H 5 11:14:51.94 130.500 00:03:41 Yes
364 Ceyx Loft - CA 0727-AU18-CEYX BB H 1 11:14:53.55 130.474 00:03:43 Yes
365 Yang Family Racing - CA 0012-AU18-YS 739 X 538 DC H 3 11:14:54.29 130.462 00:03:43 Yes
366 Dj Loft Of Utah - UT 19403-AU18-ARPU Senhor da guerra DC H 8 11:14:55.29 130.446 00:03:44 Yes
367 Medina Loft - TX 1833-AU18-JJ PIED H 2 11:14:56.95 130.419 00:03:46 Yes
368 American Lofts - OR 2562-AU18-CORP OPAL H 9 11:14:58.15 130.400 00:03:47 Yes
369 John Gutierrez - NM 0810-AU18-GUTZ BC H 3 11:14:58.46 130.395 00:03:47 Yes
370 Miami Syndicate Loft - FL 4803-AU18-HRPC BC H 13 11:14:58.97 130.387 00:03:48 Yes
371 Warbird Loft - CO 8627-AU18-FH PIED H 3 11:15:00.40 130.364 00:03:49 Yes
372 Callejas Loft - IL 1807-AU18-CALL BB H 4 11:15:02.39 130.332 00:03:51 Yes
373 Alan Porter - WI 0480-AU18-RRR BBWF H 8 11:15:02.65 130.328 00:03:52 Yes
374 Floridian Loft - FL 2581-AU18-SCHE DEN 81 BCWF H 17 11:15:03.57 130.313 00:03:53 Yes
375 Shi Loft - PA 7789-IF18-ERIE BC H 6 11:15:04.91 130.291 00:03:54 Yes
376 Life Loft - WA 2052-AU18-CBF Toughest SLAT H 2 11:15:05.60 130.280 00:03:55 Yes
377 Drama Queen Loft - TX 1080-AU18-GCL BC H 3 11:15:08.13 130.240 00:03:57 Yes
378 Barry Venn - WY 18081-AU18-VENN DC H 5 11:15:08.87 130.228 00:03:58 Yes
379 Charlie Barbiere - NJ 2318-IF18-BSC BBWF H 2 11:15:10.52 130.201 00:04:00 Yes
380 Dj Loft Of Utah - UT 19405-AU18-ARPU Hollywood x Schellens SPLH H 9 11:15:10.83 130.196 00:04:00 Yes
381 Ken & Roly - NM 2717-AU18-VITA BC H 10 11:15:11.95 130.178 00:04:01 Yes
381 A P C Loft - TX 18336-AU18-APC BB H 10 11:15:11.99 130.178 00:04:01 Yes
383 Ganus Family Loft - IN 0850-AU18-GFL BB H 6 11:15:12.77 130.165 00:04:02 Yes
384 Kwan Loft - CA 0861-AU18-HP GRIZ H 5 11:15:14.11 130.144 00:04:03 Yes
385 Flying Pilgrims - OR 54440-AU18-ARPU DC H 3 11:15:15.53 130.121 00:04:05 Yes
386 Horizon Loft - WA 1042-AU18-YAK BC H 3 11:15:15.95 130.114 00:04:05 Yes
387 Floridian Loft - FL 2510-AU18-SCHE DEN 10 BB H 18 11:15:16.19 130.110 00:04:05 Yes
388 G T Family Loft - IL 0126-AU18-GT DC H 3 11:15:16.92 130.099 00:04:06 Yes
389 Racing Pigeon Mall - WA 0804-AU18-RPM BB H 2 11:15:17.61 130.088 00:04:07 Yes
390 Siguaraya & El Rey De Los Cielos - FL 30606-AU18-ARPU BB H 8 11:15:17.93 130.082 00:04:07 Yes
391 Lins Loft - WA 0008-AU18-LINS BBWF H 1 11:15:18.35 130.076 00:04:07 Yes
392 David Clausing - FL 0133-IF18-CLAU RB H 6 11:15:19.40 130.059 00:04:08 Yes
393 A P C Loft - TX 18328-AU18-APC BB H 11 11:15:19.71 130.054 00:04:09 Yes
394 J & J Ballard - WA 1231-AU18-YAK BC H 1 11:15:20.33 130.044 00:04:09 Yes
395 Sam A Miller - KY 4114-AU18-FOYS BCWF H 2 11:15:20.74 130.037 00:04:10 Yes
396 Transilvania Loft - NV 0010-AU18-CFL BB H 2 11:15:21.56 130.024 00:04:11 Yes
397 Horse Heaven Hills - OR 0813-AU18-HHH BB H 7 11:15:22.44 130.010 00:04:11 Yes
398 Transilvania Loft - NV 0014-AU18-CFL SPLH H 3 11:15:24.14 129.983 00:04:13 Yes
399 Csa - MS 6501-AU18-FOYS BC H 3 11:15:26.16 129.951 00:04:15 Yes
400 Thunder Birds/Rodriguez Breeding Loft - TX 18459-AU18-WIN 109-251 BB H 4 11:15:27.08 129.936 00:04:16 Yes

There are 968 bird records

Note: These Race Results are unofficial and subject to change until verified by the Race Committee and declared final.